Temperature
20 21 21 20 20 20 20 20 20 20 20 20 20 20 19 19 19 19 19 19 19 19 19 19 19 19 19 19 19 19 19 19 19 19 19 19 19 19 18 18 18 18 18
21 21 21 21 20 20 20 20 20 20 20 20 19 19 19 19 19 19 19 19 19 19 19 19 19 19 19 19 19 19 19 19 19 19 19 19 19 19 19 18 18 18 18
21 21 21 21 20 20 20 20 20 20 19 19 19 19 19 19 19 19 19 19 19 19 19 19 19 19 19 19 19 19 19 19 19 19 19 19 19 19 19 18 18 18 18
21 21 21 21 20 20 20 20 20 20 19 19 19 19 19 19 19 19 19 19 19 19 19 19 19 19 19 19 19 19 19 19 19 19 18 18 18 19 19 18 18 18 18
21 21 21 21 21 20 20 20 20 19 19 19 19 19 19 19 19 19 19 19 19 19 19 19 19 19 19 19 19 19 19 19 19 19 18 18 18 19 19 18 18 18 18
21 21 22 21 21 20 20 20 20 20 19 19 19 19 19 19 19 19 19 19 19 19 19 19 19 19 19 19 19 19 19 19 19 19 18 18 18 18 18 18 18 18 18
21 22 22 21 21 21 20 20 20 20 20 19 19 19 19 19 19 19 19 19 19 19 19 19 19 19 19 19 19 19 19 19 19 19 18 18 19 19 19 19 18 18 18
22 22 22 22 21 21 21 20 20 20 20 19 19 19 19 19 19 19 19 19 19 19 19 19 19 19 19 19 19 19 19 19 19 19 19 19 19 19 19 19 18 18 18
22 22 22 22 21 21 21 20 20 20 20 20 19 19 19 19 19 19 19 19 19 19 19 19 19 19 19 19 19 19 19 19 19 19 19 19 19 19 19 19 18 18 18
22 22 22 22 21 21 21 21 20 20 20 20 20 19 19 19 19 19 19 19 19 19 19 19 19 19 19 19 19 19 19 19 19 19 19 19 19 19 19 19 18 18 18
23 22 22 21 21 21 21 21 20 20 20 20 20 19 19 19 19 19 19 19 19 19 19 19 19 19 19 19 19 19 19 19 19 19 19 19 19 19 19 19 19 18 18
23 22 22 22 21 21 21 20 20 20 20 20 20 19 19 19 19 19 19 19 19 19 19 19 19 19 19 19 19 19 19 19 19 19 19 19 19 19 19 19 19 18 18
23 22 22 22 21 21 21 21 20 20 20 20 19 19 19 19 19 19 19 19 19 19 19 19 19 19 19 19 19 19 19 19 19 19 19 19 19 19 19 19 18 18 18
23 22 22 22 21 21 21 21 20 20 20 20 19 19 19 19 19 19 19 19 19 19 19 19 19 19 19 19 19 19 19 19 19 19 19 19 19 19 19 19 18 18 18
23 22 22 21 21 21 21 21 20 20 20 20 20 19 19 19 19 19 19 19 19 19 19 19 19 19 19 19 19 19 19 19 19 19 19 19 19 19 19 19 18 18 18
23 22 22 21 21 21 21 21 20 20 20 20 20 19 19 19 19 19 19 19 19 19 19 19 19 19 19 19 19 19 19 19 19 19 19 19 19 19 19 19 18 18 18
23 22 22 21 21 21 21 21 20 20 20 20 20 19 19 19 19 19 19 19 19 19 19 19 19 19 19 19 19 19 19 19 18 18 18 18 19 19 18 18 18 18 18
22 22 22 21 21 21 21 21 20 20 20 20 20 20 19 19 19 19 19 19 19 19 19 19 19 19 19 19 19 19 19 19 18 18 18 18 18 18 18 18 18 18 18
22 22 22 21 21 21 21 20 20 20 20 20 20 19 19 19 19 19 19 19 19 19 19 19 19 19 19 19 19 19 19 19 19 19 19 18 18 18 18 18 18 18 18
22 22 22 21 21 21 20 20 20 20 20 20 19 19 19 19 19 19 19 19 19 19 19 19 19 19 18 19 19 19 19 19 19 19 19 19 18 18 18 18 18 18 18
22 22 21 21 21 21 20 20 20 20 20 19 19 19 19 19 19 19 19 19 18 18 19 19 18 19 18 18 19 19 19 19 19 19 19 19 18 18 18 18 18 18 18
22 22 22 21 21 21 21 20 20 20 20 19 19 19 19 19 19 19 19 18 18 18 18 18 18 18 18 18 18 18 19 19 19 19 19 19 18 18 18 18 18 18 17
23 22 22 21 21 21 21 20 20 20 19 19 19 19 19 19 19 19 19 18 18 18 18 18 18 18 18 18 19 18 18 18 19 19 19 19 19 18 18 18 18 18 18
23 22 22 21 21 21 21 20 20 20 20 19 19 19 19 19 19 19 18 18 18 18 18 18 18 18 18 18 18 18 18 18 18 18 18 18 18 18 18 18 18 18 18
24 23 22 21 21 21 20 20 20 20 20 19 19 19 19 19 18 18 18 18 18 18 18 18 18 18 18 18 18 18 18 18 18 18 18 18 18 18 18 18 18 18 17
24 23 22 21 21 21 20 20 20 20 20 19 19 19 19 18 18 18 18 18 18 18 18 18 17 17 18 18 18 17 18 18 18 18 18 18 18 18 18 18 18 18 17
Wind_Speed
10 11 12 11 10 10 10 10 10 10 10 10 10 9 10 10 11 11 11 11 11 11 10 10 10 9 9 9 9 10 10 11 11 10 10 10 10 9 9 8 9 9 12
12 12 12 11 11 10 10 10 10 10 10 10 10 9 9 10 10 10 10 10 10 10 9 9 9 9 8 8 8 9 9 9 10 10 9 9 9 8 8 7 8 9 12
13 12 12 12 11 10 10 10 10 10 10 9 9 9 9 9 9 9 9 9 9 8 8 8 8 8 8 7 7 8 8 8 9 9 9 8 9 9 9 9 10 10 10
14 13 13 13 11 11 10 10 9 9 9 8 8 8 8 8 8 8 8 7 7 7 7 7 7 7 7 7 6 6 7 7 8 8 7 7 8 10 10 9 9 9 9
14 15 14 13 12 11 10 9 9 9 9 8 8 7 8 8 7 7 7 6 6 6 6 6 6 6 6 6 6 5 6 6 7 7 4 6 9 12 11 10 9 9 8
14 15 15 14 13 11 10 9 9 9 8 8 7 7 7 7 7 7 6 6 6 6 6 6 5 5 5 5 5 5 5 6 6 5 4 7 10 13 12 11 9 9 8
14 14 15 15 13 12 10 9 8 8 7 7 7 6 7 7 6 6 6 6 5 5 5 5 5 5 5 5 5 5 6 6 6 4 5 8 12 15 13 11 10 8 8
14 15 14 15 14 12 11 9 8 8 7 7 6 6 6 6 6 6 6 6 6 5 4 5 5 5 5 6 6 6 7 7 6 5 5 9 15 16 14 12 10 9 8
12 14 13 12 12 12 11 10 9 8 7 6 6 5 5 5 5 5 5 5 5 5 4 5 5 5 5 6 7 7 7 8 6 4 4 8 15 16 14 12 11 9 9
10 11 10 11 10 10 11 10 9 8 7 6 5 5 5 5 6 6 6 6 6 6 5 6 6 5 6 7 8 9 9 8 7 5 3 8 15 15 14 12 11 10 9
8 8 8 8 9 9 10 10 10 9 7 6 6 6 6 6 6 7 6 7 7 7 7 7 7 7 7 8 10 11 9 7 4 3 3 10 15 14 13 12 11 11 10
9 7 7 7 7 7 7 9 7 7 7 6 4 5 5 4 4 5 7 9 9 8 8 9 9 8 8 7 9 11 7 6 4 3 4 11 13 13 12 12 11 11 11
9 7 7 7 6 4 4 5 4 4 6 5 3 3 3 2 2 3 4 5 6 8 6 7 8 7 6 5 4 5 5 3 2 4 6 11 12 11 11 11 11 11 11
9 8 7 7 6 4 3 3 3 2 3 3 3 1 1 1 2 2 1 2 2 3 4 3 3 3 2 3 4 3 3 2 2 3 6 11 12 11 11 11 11 10 10
8 8 7 7 5 4 3 1 3 2 3 4 4 3 3 3 3 2 3 2 1 1 1 1 1 2 1 1 1 1 2 2 1 2 5 9 11 11 10 10 10 10 10
7 7 7 7 6 3 2 1 1 2 2 3 4 4 3 3 2 2 2 2 2 2 1 1 1 1 1 1 1 0 1 2 3 3 5 6 8 9 9 9 9 10 11
8 7 6 7 6 4 2 1 1 2 3 3 4 5 4 3 3 2 2 1 2 2 1 1 2 1 1 1 1 1 1 1 2 3 5 5 6 7 8 8 9 10 11
9 7 5 5 7 5 3 1 1 2 3 3 4 5 4 3 2 2 2 2 2 2 2 1 1 1 1 0 1 1 1 2 2 2 4 5 5 6 8 8 8 8 9
9 8 6 4 5 5 4 2 1 2 2 3 4 4 3 3 3 2 2 2 1 2 2 3 3 2 1 1 1 2 1 2 2 2 3 4 6 6 7 8 9 8 8
9 8 7 5 5 5 4 3 1 2 2 3 4 3 4 2 2 2 2 2 2 3 3 3 1 1 1 1 2 1 2 3 3 3 3 3 4 6 7 7 8 8 9
9 8 6 6 5 4 3 3 3 2 2 3 3 4 4 2 2 2 2 1 2 2 3 2 2 1 1 0 1 1 1 3 3 3 2 2 2 4 6 8 8 7 7
10 9 8 6 6 6 4 3 3 3 2 3 3 3 3 3 2 2 1 1 1 2 2 2 2 2 2 1 1 1 0 0 1 3 3 3 3 3 4 7 8 8 8
10 10 8 7 7 6 5 4 3 3 2 2 3 3 2 3 3 2 2 1 2 1 1 1 1 2 2 1 1 1 1 1 1 1 2 3 3 3 2 3 6 7 8
11 10 9 8 7 6 5 4 4 4 3 2 2 3 3 2 3 3 1 1 2 2 2 1 2 2 2 2 1 0 1 0 1 1 1 1 2 2 2 2 2 4 6
10 10 10 8 8 7 6 5 3 3 3 3 3 4 3 3 3 2 2 1 1 1 2 2 2 2 2 3 3 2 1 1 2 1 1 1 1 1 2 2 1 3 5
9 10 10 9 8 8 7 6 5 4 4 4 4 4 3 3 2 2 2 1 1 1 1 1 1 2 2 3 4 3 2 2 2 1 2 2 1 1 2 1 2 2 4
Wind_Direction
109 111 109 103 99 96 93 91 91 93 96 97 99 101 100 104 106 111 114 116 118 120 123 126 126 127 124 117 115 116 117 117 117 116 112 112 112 116 119 119 117 116 118
114 114 111 108 103 101 98 96 95 95 96 95 98 100 102 105 108 113 115 119 123 126 128 131 134 134 130 124 124 125 127 130 134 133 132 127 122 121 120 115 105 116 120
114 115 113 110 107 105 101 98 97 95 96 97 100 100 103 108 114 117 120 124 129 132 133 136 139 139 137 135 136 139 143 149 154 157 156 145 136 134 125 114 114 119 120
117 116 112 113 110 107 103 100 99 97 96 99 104 102 105 112 117 117 123 127 131 133 137 139 143 144 150 147 149 154 160 170 181 186 181 164 146 140 136 127 125 125 124
115 111 114 115 111 107 105 103 102 99 97 98 105 110 112 117 119 119 124 132 130 134 138 139 144 147 154 158 160 171 182 190 197 214 190 147 133 143 143 137 134 134 136
116 115 118 118 116 113 110 108 106 103 101 99 101 108 118 121 124 121 124 135 132 136 146 145 152 157 166 174 180 192 202 210 214 211 177 146 135 146 146 144 140 140 146
118 117 124 125 123 120 118 117 114 110 108 105 105 105 116 122 120 122 127 138 139 139 152 154 160 168 179 189 194 202 219 226 228 214 172 150 142 151 151 152 150 152 154
119 121 127 133 133 131 127 124 125 121 117 113 111 112 121 128 131 132 137 147 151 153 159 170 173 180 192 201 207 216 230 242 226 204 174 146 152 156 157 158 159 163 167
114 125 136 139 141 139 136 136 135 135 135 134 131 134 140 146 150 151 154 154 157 163 170 178 183 189 200 211 218 227 238 247 254 222 179 145 156 158 161 163 169 172 174
113 119 130 139 142 146 146 149 148 146 152 151 154 162 165 169 174 175 173 169 171 176 178 179 185 196 206 215 221 230 239 252 243 215 163 149 158 161 165 169 175 179 183
108 113 121 126 139 146 145 150 159 158 165 165 173 189 194 191 184 185 174 177 186 190 190 189 196 204 208 217 220 227 237 242 223 176 157 156 162 164 168 174 180 185 186
118 114 114 116 115 131 140 143 162 163 164 176 172 183 204 198 180 166 167 183 192 198 201 202 209 214 217 221 220 220 228 228 206 163 164 155 161 167 171 177 184 189 191
120 114 111 102 94 92 104 136 152 157 155 162 163 175 174 185 160 144 163 182 199 203 212 208 216 223 219 208 215 208 210 217 173 158 162 161 165 174 176 178 184 190 194
118 114 107 103 93 79 81 113 123 128 128 127 143 142 123 78 45 57 81 154 180 191 191 195 203 221 217 211 198 184 190 178 153 150 156 163 167 173 178 181 185 190 196
120 118 110 102 97 94 68 51 112 116 112 120 124 102 59 48 41 55 34 30 10 93 129 168 183 182 199 223 241 169 157 138 116 153 155 168 173 178 181 186 191 198 199
129 124 123 121 114 110 104 32 81 110 117 116 110 102 86 70 48 66 60 14 3 32 34 88 142 151 188 162 188 182 136 149 164 163 160 172 176 180 183 191 199 204 204
136 133 136 139 135 139 141 185 125 128 117 99 102 98 85 75 61 50 66 26 13 26 38 51 60 80 135 139 197 205 169 162 197 174 169 167 175 183 188 195 204 207 205
139 135 143 151 144 148 150 164 69 75 91 95 106 106 92 79 71 39 58 42 16 16 26 53 60 44 46 193 223 201 161 165 185 185 165 171 178 184 187 192 194 201 201
140 142 150 150 147 151 155 160 141 102 92 98 103 105 107 90 54 43 58 30 355 39 31 20 51 11 330 274 218 185 181 168 184 190 168 172 175 177 172 180 189 193 198
144 146 154 155 152 152 155 152 158 129 122 110 103 102 109 101 78 38 72 34 10 46 43 37 14 338 317 293 287 203 199 188 190 180 178 171 171 174 171 172 180 191 195
149 150 156 157 152 152 160 172 178 163 145 130 124 119 117 104 90 78 30 37 35 61 48 30 8 312 293 301 298 260 204 198 178 167 173 172 169 169 172 171 178 181 187
157 157 160 165 161 167 167 170 165 152 151 140 123 118 133 120 93 97 73 354 48 89 65 18 18 332 324 8 302 302 294 267 274 191 176 177 179 185 192 188 184 182 183
165 167 172 171 167 173 169 166 162 141 148 132 132 132 127 127 121 62 58 26 16 56 79 353 16 349 324 317 30 18 6 312 305 205 200 171 172 183 201 189 188 186 187
171 170 167 165 165 171 170 174 173 159 162 150 139 131 140 133 124 115 87 65 29 35 56 16 47 338 323 321 308 203 173 136 246 299 269 181 174 177 195 207 183 174 177
172 168 166 163 165 169 174 167 172 163 160 146 143 145 152 143 125 113 108 83 83 60 45 25 25 358 352 341 338 335 318 269 244 243 278 274 220 187 191 194 193 171 175
169 164 161 160 165 166 171 171 173 170 168 154 153 162 171 154 142 125 115 86 84 78 54 30 356 10 0 355 342 334 333 328 314 296 279 277 265 230 200 182 180 170 179
Height
1501 1501 1501 1502 1502 1503 1503 1504 1504 1505 1505 1506 1507 1508 1509 1510 1511 1512 1514 1515 1517 1518 1520 1522 1524 1525 1527 1529 1530 1532 1534 1535 1537 1538 1540 1541 1542 1543 1544 1545 1547 1548 1549
1501 1502 1502 1503 1504 1504 1505 1505 1506 1506 1507 1508 1509 1509 1510 1511 1513 1514 1515 1516 1518 1519 1521 1523 1524 1526 1528 1529 1531 1533 1535 1536 1538 1539 1541 1542 1543 1544 1545 1546 1547 1548 1550
1502 1503 1503 1504 1505 1506 1506 1507 1507 1508 1508 1509 1510 1511 1512 1513 1514 1515 1516 1518 1519 1520 1522 1523 1525 1526 1528 1530 1532 1534 1535 1537 1538 1540 1542 1543 1544 1545 1546 1547 1548 1549 1550
1503 1504 1505 1506 1506 1507 1508 1508 1509 1510 1510 1511 1512 1512 1513 1514 1515 1516 1518 1519 1520 1521 1523 1524 1526 1527 1529 1531 1532 1534 1536 1537 1539 1541 1542 1543 1544 1546 1547 1548 1549 1550 1551
1505 1505 1506 1507 1508 1509 1509 1510 1511 1511 1512 1512 1513 1513 1514 1515 1516 1517 1519 1520 1521 1522 1523 1525 1526 1528 1529 1531 1533 1535 1536 1538 1540 1541 1543 1544 1545 1546 1547 1548 1549 1550 1551
1506 1507 1508 1509 1509 1510 1511 1512 1512 1513 1513 1514 1514 1515 1515 1516 1517 1518 1519 1520 1521 1523 1524 1525 1526 1528 1530 1532 1533 1535 1537 1538 1540 1542 1543 1544 1545 1546 1547 1549 1549 1550 1551
1508 1508 1509 1510 1511 1511 1512 1513 1514 1514 1515 1515 1516 1516 1517 1518 1519 1519 1520 1521 1522 1523 1524 1526 1527 1529 1530 1532 1534 1535 1537 1538 1540 1541 1543 1544 1545 1546 1547 1549 1549 1550 1551
1508 1509 1511 1511 1512 1513 1514 1514 1515 1516 1516 1517 1518 1518 1518 1519 1520 1521 1522 1522 1523 1524 1525 1526 1528 1529 1530 1532 1533 1535 1537 1538 1540 1541 1543 1544 1545 1546 1547 1548 1549 1550 1551
1510 1510 1511 1512 1513 1514 1515 1516 1517 1517 1518 1518 1519 1519 1520 1520 1521 1522 1522 1523 1524 1525 1525 1526 1528 1529 1530 1532 1533 1535 1536 1537 1539 1541 1542 1544 1544 1546 1547 1548 1549 1550 1550
1511 1512 1513 1514 1515 1516 1517 1517 1518 1518 1519 1520 1520 1521 1521 1522 1522 1523 1523 1524 1525 1525 1526 1526 1528 1529 1530 1531 1533 1534 1535 1537 1539 1541 1542 1543 1544 1545 1546 1547 1548 1549 1550
1513 1514 1515 1516 1517 1517 1518 1519 1519 1520 1520 1521 1521 1522 1522 1523 1523 1524 1525 1525 1525 1526 1526 1527 1528 1529 1530 1531 1532 1534 1535 1536 1538 1540 1541 1542 1543 1544 1545 1546 1547 1548 1549
1513 1515 1517 1518 1519 1519 1520 1520 1521 1521 1522 1522 1523 1523 1523 1524 1524 1525 1525 1526 1526 1527 1527 1527 1528 1529 1529 1530 1532 1533 1534 1535 1537 1538 1539 1540 1542 1543 1544 1545 1546 1547 1548
1514 1516 1518 1519 1519 1521 1521 1521 1522 1522 1523 1523 1524 1524 1524 1525 1526 1526 1526 1526 1526 1527 1527 1527 1528 1528 1529 1530 1531 1532 1533 1535 1536 1537 1538 1539 1541 1542 1543 1543 1544 1545 1546
1515 1517 1518 1519 1520 1521 1522 1522 1523 1524 1524 1524 1524 1524 1525 1526 1526 1526 1526 1526 1527 1527 1527 1528 1528 1529 1529 1530 1531 1532 1533 1534 1535 1536 1537 1538 1539 1540 1541 1542 1543 1544 1545
1516 1517 1519 1519 1520 1521 1522 1523 1524 1524 1525 1526 1525 1525 1526 1526 1526 1527 1527 1527 1527 1527 1527 1528 1528 1529 1529 1530 1531 1531 1532 1533 1534 1535 1536 1536 1537 1538 1539 1540 1541 1542 1543
1516 1518 1519 1519 1520 1521 1522 1523 1524 1525 1526 1527 1526 1526 1526 1527 1527 1527 1527 1526 1527 1527 1527 1528 1528 1529 1529 1529 1530 1530 1531 1532 1533 1534 1534 1535 1536 1537 1537 1538 1539 1540 1541
1516 1517 1519 1520 1520 1521 1522 1523 1525 1525 1526 1526 1526 1526 1526 1527 1527 1527 1527 1527 1527 1527 1528 1528 1528 1528 1529 1529 1529 1529 1530 1531 1532 1533 1533 1534 1534 1535 1536 1537 1538 1538 1539
1515 1517 1518 1520 1520 1521 1522 1523 1525 1526 1526 1526 1526 1526 1526 1527 1527 1527 1527 1528 1528 1528 1528 1528 1528 1528 1528 1528 1528 1528 1529 1530 1531 1531 1532 1532 1533 1534 1534 1535 1536 1537 1538
1514 1516 1517 1519 1520 1521 1522 1524 1525 1526 1526 1527 1526 1526 1527 1527 1527 1528 1528 1528 1528 1528 1528 1528 1528 1528 1528 1528 1527 1528 1528 1529 1529 1530 1531 1531 1532 1532 1533 1534 1534 1535 1536
1513 1515 1517 1518 1520 1521 1522 1523 1524 1525 1526 1526 1527 1527 1527 1527 1527 1528 1528 1528 1528 1528 1528 1528 1528 1528 1528 1528 1528 1528 1528 1528 1529 1529 1530 1531 1531 1531 1532 1532 1533 1534 1535
1512 1514 1516 1517 1518 1520 1521 1522 1524 1525 1526 1526 1526 1526 1527 1527 1527 1527 1527 1528 1528 1528 1528 1528 1528 1528 1528 1528 1528 1527 1528 1528 1528 1529 1529 1530 1530 1531 1531 1531 1532 1532 1533
1510 1512 1514 1516 1517 1518 1520 1522 1523 1525 1525 1526 1526 1526 1526 1527 1527 1527 1527 1527 1528 1528 1528 1528 1527 1528 1528 1528 1528 1527 1528 1529 1528 1528 1528 1529 1529 1530 1530 1530 1531 1531 1531
1509 1510 1512 1514 1515 1517 1519 1521 1523 1524 1524 1525 1525 1525 1526 1526 1526 1527 1527 1527 1528 1528 1528 1527 1527 1527 1527 1528 1528 1528 1528 1527 1527 1528 1528 1528 1528 1529 1529 1529 1530 1530 1530
1507 1509 1511 1512 1514 1516 1517 1519 1521 1522 1523 1523 1524 1525 1525 1526 1526 1526 1526 1527 1527 1527 1527 1527 1527 1527 1527 1527 1528 1527 1528 1527 1527 1527 1527 1527 1527 1527 1528 1528 1528 1529 1529
1505 1507 1508 1510 1512 1514 1516 1517 1519 1520 1521 1522 1523 1524 1525 1525 1525 1526 1526 1526 1526 1526 1526 1527 1527 1526 1526 1526 1526 1527 1526 1526 1526 1526 1526 1526 1527 1526 1526 1527 1527 1527 1527
1502 1505 1506 1508 1510 1512 1513 1515 1517 1518 1520 1521 1522 1523 1524 1524 1524 1525 1525 1525 1525 1525 1526 1526 1526 1526 1525 1525 1525 1525 1526 1525 1525 1525 1525 1524 1525 1525 1525 1525 1525 1526 1526